Powrót do katalogu

SAMSON MASS SIMULATOR

AktywnyNaukaSSO
NORAD 43891·PAYLOAD·🇷🇺 Russia
Ta nazwa satelity nie została jeszcze potwierdzona przez oficjalne źródła.

Wystrzelony Dec 27, 2018 z Vostochny Cosmodrome

Loading…

Następne Przeloty (najbliższe 24 godziny)

TLE

ŚwieżeSource: Space-Track

Epoka: Sep 14, 2026, 14:36 UTC

1 43891U 18111R   26257.60859025  .00003140  00000-0  85429-4 0  9994
2 43891  97.0045  89.2379 0017796 309.1226  50.8437 15.38084799430179

Śledź SAMSON MASS SIMULATOR w czasie rzeczywistym z AllMySat

Download on the App Store